Total_Precipitation_Accumulation
1.33 1.29 1.15 1.13 1.05 0.92 0.87 0.82 0.75 0.69 0.63 0.56 0.49 0.44 0.43 0.42 0.40 0.42 0.37 0.33 0.39 0.63 0.93 1.09 1.11 1.17 1.20 1.24 1.25 1.19 1.12 1.06 0.97 0.89 0.82 0.76 0.76 0.78 0.79 0.81 0.80 0.82 0.83
1.47 1.35 1.22 1.17 1.12 1.00 0.90 0.88 0.82 0.79 0.73 0.67 0.59 0.51 0.45 0.43 0.40 0.40 0.40 0.37 0.37 0.45 0.68 0.93 1.08 1.26 1.42 1.51 1.47 1.38 1.27 1.22 1.17 1.07 0.96 0.87 0.83 0.81 0.82 0.83 0.81 0.81 0.85
1.65 1.56 1.36 1.22 1.16 1.15 1.14 1.09 1.04 0.91 0.80 0.74 0.69 0.63 0.56 0.51 0.46 0.41 0.41 0.40 0.38 0.38 0.48 0.71 0.95 1.16 1.38 1.57 1.61 1.56 1.45 1.33 1.29 1.24 1.14 1.03 0.93 0.87 0.84 0.85 0.86 0.87 0.88
1.87 1.78 1.62 1.42 1.33 1.34 1.32 1.24 1.13 1.07 0.91 0.79 0.72 0.68 0.63 0.57 0.50 0.45 0.42 0.38 0.36 0.34 0.39 0.53 0.70 0.93 1.20 1.39 1.56 1.62 1.57 1.43 1.33 1.29 1.20 1.12 1.08 1.05 1.02 0.99 0.97 0.99 1.01
2.10 1.92 1.72 1.60 1.60 1.54 1.43 1.35 1.21 1.21 1.16 0.97 0.82 0.75 0.71 0.65 0.56 0.51 0.46 0.42 0.38 0.34 0.35 0.41 0.51 0.60 0.82 1.12 1.39 1.64 1.73 1.66 1.54 1.44 1.37 1.28 1.23 1.23 1.20 1.18 1.15 1.15 1.20
2.46 2.28 1.94 1.78 1.78 1.76 1.66 1.55 1.46 1.37 1.31 1.29 1.14 0.89 0.75 0.71 0.67 0.59 0.53 0.48 0.44 0.39 0.36 0.38 0.43 0.45 0.53 0.75 1.09 1.43 1.72 1.83 1.75 1.64 1.56 1.50 1.44 1.41 1.41 1.43 1.42 1.41 1.43
2.53 2.62 2.35 2.10 2.03 1.96 1.91 1.86 1.83 1.76 1.56 1.51 1.49 1.22 0.93 0.78 0.73 0.65 0.60 0.58 0.53 0.49 0.47 0.44 0.46 0.47 0.50 0.64 0.83 1.01 1.32 1.66 1.82 1.82 1.74 1.68 1.64 1.64 1.69 1.72 1.70 1.66 1.65
2.59 2.63 2.69 2.50 2.22 2.14 2.13 2.11 2.02 1.89 1.82 1.77 1.70 1.61 1.40 1.18 0.89 0.73 0.69 0.66 0.62 0.59 0.57 0.57 0.56 0.57 0.57 0.64 0.70 0.77 0.92 1.23 1.59 1.83 1.87 1.81 1.77 1.77 1.87 1.99 2.06 2.05 1.99
2.72 2.64 2.59 2.63 2.52 2.36 2.25 2.26 2.31 2.28 2.15 2.04 1.93 1.97 1.71 1.40 1.12 0.90 0.81 0.78 0.78 0.76 0.71 0.70 0.70 0.70 0.69 0.69 0.66 0.67 0.73 0.92 1.25 1.68 2.01 2.14 2.10 2.10 2.19 2.27 2.33 2.42 2.41
2.80 2.69 2.68 2.67 2.63 2.54 2.39 2.35 2.43 2.48 2.49 2.40 2.25 2.07 1.84 1.54 1.41 1.18 0.94 0.90 0.96 0.98 0.94 0.87 0.84 0.82 0.80 0.78 0.76 0.76 0.79 0.85 1.12 1.57 2.08 2.42 2.55 2.68 2.85 2.88 2.94 3.02 2.94
2.91 2.80 2.70 2.72 2.73 2.65 2.57 2.52 2.50 2.53 2.54 2.51 2.45 2.28 2.11 1.80 1.54 1.44 1.22 1.06 1.09 1.07 1.08 1.04 0.97 0.92 0.90 0.87 0.84 0.89 1.01 1.04 1.24 1.58 2.07 2.60 2.93 3.15 3.34 3.44 3.51 3.55 3.53
2.75 2.69 2.70 2.64 2.63 2.62 2.53 2.49 2.49 2.48 2.49 2.43 2.34 2.22 2.15 2.00 1.76 1.67 1.51 1.28 1.27 1.23 1.23 1.20 1.14 1.06 1.01 0.95 0.93 1.12 1.13 1.15 1.31 1.58 2.00 2.49 2.84 3.12 3.33 3.50 3.62 3.65 3.73
2.45 2.40 2.45 2.48 2.50 2.49 2.50 2.48 2.44 2.34 2.35 2.38 2.28 2.14 2.01 1.81 1.68 1.76 1.76 1.57 1.40 1.27 1.26 1.26 1.21 1.23 1.22 1.20 1.20 1.35 1.26 1.29 1.35 1.58 1.93 2.30 2.43 2.51 2.66 2.86 3.12 3.26 3.36
2.26 2.25 2.29 2.33 2.38 2.44 2.44 2.48 2.45 2.32 2.25 2.21 2.19 2.13 2.07 1.89 1.73 1.68 1.72 1.81 1.77 1.52 1.33 1.22 1.17 1.28 1.38 1.42 1.51 1.62 1.37 1.51 1.48 1.53 1.73 1.94 2.01 1.95 2.02 2.22 2.50 2.73 2.89
2.15 2.18 2.29 2.28 2.23 2.23 2.22 2.26 2.29 2.19 2.09 2.04 1.97 2.00 2.00 1.91 1.85 1.75 1.73 1.85 2.13 2.09 1.70 1.38 1.34 1.41 1.50 1.55 1.68 1.55 1.31 1.52 1.58 1.53 1.57 1.61 1.64 1.63 1.65 1.77 1.94 2.13 2.27
1.97 1.98 2.06 2.16 2.15 2.11 2.12 2.14 2.06 1.97 1.92 1.81 1.71 1.75 1.80 1.81 1.87 1.88 1.87 1.90 2.03 2.23 2.04 1.54 1.40 1.42 1.51 1.53 1.67 1.50 1.39 1.59 1.49 1.44 1.44 1.44 1.41 1.40 1.41 1.48 1.61 1.76 1.91
1.82 1.78 1.84 1.89 1.90 1.87 1.88 1.94 1.90 1.85 1.83 1.78 1.68 1.60 1.55 1.60 1.75 1.83 1.91 1.95 1.98 2.09 2.10 1.65 1.38 1.34 1.42 1.41 1.38 1.29 1.28 1.30 1.26 1.39 1.32 1.28 1.29 1.28 1.27 1.32 1.41 1.51 1.63
1.72 1.69 1.72 1.78 1.78 1.75 1.73 1.74 1.72 1.69 1.72 1.72 1.72 1.70 1.60 1.58 1.70 1.80 1.91 1.94 1.90 1.85 1.88 1.71 1.42 1.30 1.28 1.24 1.21 1.17 1.13 1.12 1.11 1.32 1.31 1.25 1.24 1.23 1.18 1.20 1.27 1.36 1.45
1.65 1.68 1.63 1.66 1.67 1.69 1.72 1.71 1.68 1.66 1.61 1.61 1.69 1.75 1.71 1.72 1.75 1.73 1.73 1.73 1.68 1.60 1.55 1.52 1.37 1.24 1.21 1.21 1.24 1.18 1.08 1.04 1.00 1.13 1.19 1.18 1.23 1.25 1.20 1.20 1.25 1.29 1.30
1.51 1.58 1.56 1.53 1.57 1.62 1.67 1.70 1.75 1.79 1.76 1.70 1.70 1.74 1.74 1.75 1.71 1.70 1.68 1.61 1.55 1.55 1.50 1.49 1.41 1.29 1.22 1.18 1.25 1.25 1.18 1.06 1.00 0.95 1.06 1.08 1.15 1.24 1.24 1.15 1.07 1.08 1.08
1.44 1.48 1.52 1.49 1.51 1.60 1.70 1.74 1.73 1.80 1.88 1.87 1.79 1.72 1.67 1.76 1.75 1.70 1.67 1.64 1.66 1.72 1.69 1.65 1.55 1.39 1.22 1.14 1.13 1.08 1.12 1.09 1.04 0.96 0.99 0.99 0.99 0.97 1.00 1.08 1.10 1.09 1.12
1.46 1.49 1.55 1.59 1.58 1.62 1.93 2.00 1.90 1.84 1.86 1.83 1.76 1.65 1.58 1.66 1.63 1.67 1.69 1.69 1.77 1.86 1.93 1.86 1.67 1.42 1.12 0.97 0.97 1.10 1.24 1.35 1.27 0.97 0.97 0.94 0.90 0.95 0.92 0.94 1.10 1.13 1.14
1.55 1.62 1.69 1.73 1.75 1.82 1.96 1.86 1.85 1.71 1.66 1.63 1.54 1.46 1.39 1.35 1.40 1.26 1.39 1.53 1.56 1.68 1.74 1.66 1.51 1.21 1.05 0.99 1.15 1.31 1.31 1.31 1.16 0.96 1.10 1.17 1.02 0.97 0.91 0.98 1.14 1.05 1.04
1.66 1.75 1.84 1.84 1.80 1.81 1.80 1.61 1.60 1.48 1.39 1.32 1.27 1.23 1.20 1.16 1.17 1.23 1.26 1.35 1.27 1.21 1.18 1.13 1.10 1.04 1.05 1.12 1.31 1.51 1.52 1.46 1.23 1.06 1.11 1.29 1.12 1.02 0.93 0.96 1.10 1.03 1.03
1.67 1.69 1.70 1.66 1.55 1.49 1.50 1.35 1.29 1.19 1.21 1.17 1.08 1.06 1.09 1.04 1.22 1.43 1.44 1.40 1.22 1.09 1.11 1.15 1.20 1.23 1.33 1.36 1.40 1.55 1.68 1.78 1.61 1.25 1.09 1.15 1.05 1.00 0.98 0.97 1.01 1.09 1.03
1.41 1.32 1.24 1.19 1.12 1.05 1.12 1.16 1.17 1.04 1.03 1.03 1.01 1.01 1.14 1.14 1.33 1.50 1.44 1.44 1.32 1.10 1.08 1.11 1.09 1.08 1.07 1.14 1.31 1.33 1.57 1.96 1.79 1.48 1.08 1.17 1.20 1.28 1.50 1.11 0.96 0.95 0.95